Regional Weather Roundup
Issued by NWS Newport/Morehead, NC

Current Version | Previous Version | Graphics & Text | Print | Product List | Glossary Off
Versions: 1 2 3 4 5 6 7 8 9 10 11 12 13 14 15 16 17 18 19 20 21 22 23 24 25 26 27 28 29 30 31 32 33 34 35 36 37 38 39 40 41 42 43 44 45 46 47 48 49 50

881
ASUS42 KMHX 201113
RWRMHX
WEATHER ROUNDUP FOR EASTERN NORTH CAROLINA
NATIONAL WEATHER SERVICE NEWPORT/MOREHEAD CITY NC
700 AM EDT WED SEP 20 2017

NOTE: "FAIR" INDICATES FEW OR NO CLOUDS BELOW 12,000 FEET
WITH NO SIGNIFICANT WEATHER AND/OR OBSTRUCTIONS TO VISIBILITY

NCZ015>017-031-032-045>047-102-103-201200-
NORTH COAST

CITY           SKY/WX    TMP DP  RH WIND       PRES   REMARKS
EDENTON        CLOUDY    71  66  84 CALM      29.95R
ELIZABETH CITY MOCLDY    69  67  93 W8        29.93R
KITTY HAWK     SUNNY     70  66  86 CALM      29.90R
MANTEO         CLEAR     71  67  89 W6        29.92R

$$

NCZ045>047-081-094-103-104-201200-
CENTRAL COAST

CITY           SKY/WX    TMP DP  RH WIND       PRES   REMARKS
FRISCO         CLOUDY    75  68  78 W7        29.94R

$$

NCZ095-097-098-100-101-201200-
SOUTHERN COAST

CITY           SKY/WX    TMP DP  RH WIND       PRES   REMARKS
BEAUFORT       CLEAR     70  67  90 CALM      29.98R
CEDAR ISLAND   NOT AVBL
JACKSONVILLE   CLEAR     66  65  96 W5        29.98R
PINEY ISLAND     N/A    N/A N/A N/A W6        29.97R
WILMINGTON     CLEAR     66  65  96 CALM      30.00R


$$

NCZ011>013-027>030-043-044-078>080-089-090>093-098-201200-
COASTAL PLAIN

CITY           SKY/WX    TMP DP  RH WIND       PRES   REMARKS
AHOSKIE          N/A     63  63 100 CALM      29.96R
CLINTON        CLEAR     64  64 100 CALM      30.00R
ELIZABETHTOWN  NOT AVBL
GOLDSBORO      CLEAR     64  64 100 CALM      29.97R
GREENVILLE     CLEAR     64  63  94 CALM      29.99R
HAVELOCK       CLEAR     67  66  97 CALM      29.99R
KENANSVILLE    CLEAR     61  61 100 CALM      29.99R FOG
KINSTON        CLEAR     64  63  94 CALM      29.99R FOG
NEW BERN       CLEAR     65  64  97 SW3       29.99R
RICHLANDS      CLEAR     62  62 100 CALM      30.00R FOG
ROCKY MOUNT    FOG       62  62 100 CALM      29.98R VSB 1
WASHINGTON     CLEAR     65  64  96 CALM      29.97R
WHITEVILLE     CLEAR     66  65  95 CALM      30.00R

$$

AMZ130-135-150-152-154-156-158-170-250-252-270-ANZ085-086-088-633-658-670-201200-
MARINE OBSERVATIONS

STATION/POSITION TIME  TEMP    WIND        PRES    WAVE   SWELL
                       AIR SEA DIR/SP/G            HT/PER HT/PER
                 (UTC) (F)     (DEG/KT/KT) (MB)    (FT/S) (FT/S)
CHESAPEAKE LIGHT NOT AVBL
64 E VA BEACH    1050   70 70  300/ 12/ 16 1011.7   10/11   8/11
DUCK             1048   71 74  290/ 11/ 14 1012.4
2 E DUCK         1100      74                N/A     6/10   3/11
OREGON INLET     1042   71 73  270/ 11/ 14 1012.7
13E OREGON INLT  1048      74                N/A     8/11   8/11
HATTERAS CG      1048   75 75  290/ 12/ 14 1013.8
DIAMOND BUOY     1050   75 74  280/ 12/ 16 1013.6    6/11   5/11
CAPE LOOKOUT     1100   74     280/  7/  8 1014.8
BEAUFORT LAB     1048   72 74  310/  3/  6 1014.4
30 SE NEW RVR IN 1008   78     290/  8/ 12 1014.8
30 SE NEW RVR IN NOT AVBL
27 SE WRIGHTSVLE 1008   78 79  290/ 10/ 14 1015.1
5 SE WRIGHTSVLE  1008   75 78  300/ 12/ 16 1014.8
225 S CAPE HAT   1050   78 80  290/  6/  8 1015.5    8/11   8/11
41 SE CHARLESTON 1050   79 82  280/  8/ 10 1015.6    3/11   3/11

$$




USA.gov is the U.S. government's official web portal to all federal, state and local government web resources and services.